"2009-05-09 00:00:00",870077,15.16,171.5,5.186,0.929,11.75,104.6588,11.2,12.28,29.82,0,110.3,13.28,11.99,133.5
"2009-05-09 00:00:30",870078,16.26,175,7.303,1.493,14.41,104.6506,11.18,12.36,29.76,0,110.3,13.28,11.97,137.0
"2009-05-09 00:01:00",870079,16,174.7,6.637,1.305,14.93,104.6488,11.17,12.41,29.98,0,110.3,13.28,11.96,136.7
"2009-05-09 00:01:30",870080,16.39,174.9,5.16,1.622,14.99,104.6452,11.16,12.39,29.91,0,110.3,13.28,11.96,136.9
"2009-05-09 00:02:00",870081,15.66,169.8,5.742,1.247,13.29,104.652,11.18,12.28,29.62,0,110.3,13.28,11.97,131.8
"2009-05-09 00:02:30",870082,15.93,176.2,6.004,1.491,13.86,104.6515,11.18,12.36,29.49,0,110.3,13.28,11.97,138.2
"2009-05-09 00:03:00",870083,15.99,170,6.243,1.432,13.06,104.6538,11.19,12.3,29.16,0,110.3,13.28,11.98,132.0
"2009-05-09 00:03:30",870084,15.57,169,4.922,1.435,12.52,104.6591,11.2,12.32,29.64,0,110.3,13.28,11.99,131.0
"2009-05-09 00:04:00",870085,18.08,173.8,6.454,1.162,14.61,104.6686,11.22,12.34,28.21,0,110.3,13.28,12.02,135.8
"2009-05-09 00:04:30",870086,17.38,176.9,6.402,1.153,15.15,104.6862,11.27,12.42,27.97,0,110.3,13.28,12.06,138.9
"2009-05-09 00:05:00",870087,17.56,176.9,5.694,1.241,14.94,104.69,11.28,12.43,28.44,0,110.3,13.28,12.07,138.9
"2009-05-09 00:05:30",870088,17.66,175.2,7.217,1.343,14.53,104.6938,11.29,12.43,28.07,0,110.3,13.28,12.08,137.2
"2009-05-09 00:06:00",870089,16.99,171.5,7.996,1.475,12.82,104.6952,11.29,12.23,27.25,0,110.3,13.28,12.08,133.5
"2009-05-09 00:06:30",870090,17.39,170.6,6.377,1.293,13.04,104.6969,11.3,12.35,26.94,0,110.3,13.29,12.09,132.6
"2009-05-09 00:07:00",870091,17.49,174.1,7.117,1.28,13.92,104.7,11.3,12.41,27.3,0,110.3,13.29,12.10,136.1
"2009-05-09 00:07:30",870092,19.03,174.2,6.055,0.984,14.9,104.7012,11.31,12.38,27.15,0,110.3,13.29,12.10,136.2
"2009-05-09 00:08:00",870093,18.99,174.8,5.171,1.246,15.41,104.6998,11.3,12.43,26.23,0,110.3,13.29,12.10,136.8
"2009-05-09 00:08:30",870094,17.74,174,5.817,1.186,14.38,104.6972,11.3,12.45,27.17,0,110.3,13.29,12.09,136.0
"2009-05-09 00:09:00",870095,17.61,175.3,6.319,1.433,14.45,104.6921,11.28,12.45,27.61,0,110.3,13.29,12.08,137.3
"2009-05-09 00:09:30",870096,16.37,170.8,7.168,1.051,12.38,104.6817,11.26,12.24,27.67,0,110.3,13.29,12.05,132.8
"2009-05-09 00:10:00",870097,17.91,171.2,7.434,1.135,13.47,104.6702,11.23,12.31,26.73,0,110.3,13.29,12.02,133.2
"2009-05-09 00:10:30",870098,17.54,172.1,7.514,1.128,13.28,104.6685,11.22,12.32,26.19,0,110.3,13.3,12.02,134.1
"2009-05-09 00:11:00",870099,17.51,174.9,6.946,1.148,14.45,104.6685,11.22,12.41,26.86,0,110.3,13.3,12.02,136.9
"2009-05-09 00:11:30",870100,18.56,173.4,6.177,1.185,14.74,104.6685,11.22,12.42,26.66,0,110.3,13.3,12.02,135.4
"2009-05-09 00:12:00",870101,18.87,172.6,6.499,1.336,14.84,104.6685,11.22,12.42,25.91,0,110.3,13.3,12.02,134.6
"2009-05-09 00:12:30",870102,19.03,173.1,5.638,1.212,14.43,104.6685,11.22,12.41,26.12,0,110.3,13.3,12.02,135.1
"2009-05-09 00:13:00",870103,19.16,170.3,6.722,1.221,13.74,104.6685,11.22,12.36,26.22,0,110.3,13.3,12.02,132.3
"2009-05-09 00:13:30",870104,19.1,170.2,6.617,1.618,13.72,104.6662,11.22,12.35,26.4,0,110.3,13.3,12.01,132.2
"2009-05-09 00:14:00",870105,18.04,172.8,6.017,1.276,14.13,104.6563,11.19,12.4,26.74,0,110.3,13.3,11.98,134.8
"2009-05-09 00:14:30",870106,19.48,171.4,6.682,1.107,14.04,104.6361,11.14,12.28,26.13,0,110.3,13.3,11.93,133.4
"2009-05-09 00:15:00",870107,19.82,171.8,5.565,1.012,14.82,104.6346,11.14,12.32,25.65,0,110.3,13.3,11.93,133.8
"2009-05-09 00:15:30",870108,18.81,169.8,5.975,1.096,14.4,104.6346,11.14,12.32,24.95,0,110.3,13.3,11.93,131.8
"2009-05-09 00:16:00",870109,18.53,174.5,4.417,1.114,15,104.6346,11.14,12.4,25.36,0,110.3,13.3,11.93,136.5
"2009-05-09 00:16:30",870110,18.13,169.2,6.536,1.584,13.59,104.6344,11.14,12.31,25.51,0,110.3,13.3,11.93,131.2
"2009-05-09 00:17:00",870111,19.88,170.9,5.991,1.112,14.43,104.6324,11.13,12.32,24.78,0,110.3,13.3,11.92,132.9
"2009-05-09 00:17:30",870112,18.57,166,6.848,1.43,12.5,104.6315,11.13,12.13,25.26,0,110.3,13.29,11.92,128.0
"2009-05-09 00:18:00",870113,18.76,165.5,5.951,1.292,13.29,104.6338,11.14,12.16,24.6,0,110.3,13.29,11.93,127.5
"2009-05-09 00:18:30",870114,19.33,170.2,6.444,1.236,15.15,104.6346,11.14,12.33,24.47,0,110.3,13.29,11.93,132.2
"2009-05-09 00:19:00",870115,20.22,170.7,5.042,1.11,15.48,104.6346,11.14,12.4,25.02,0,110.3,13.29,11.93,132.7
"2009-05-09 00:19:30",870116,19.24,172.3,6.002,1.252,15.18,104.6352,11.14,12.38,25.04,0,110.3,13.29,11.93,134.3
"2009-05-09 00:20:00",870117,19.82,171.7,5.615,0.986,15.15,104.6379,11.15,12.4,25.26,0,110.3,13.29,11.94,133.7
"2009-05-09 00:20:30",870118,20.34,168.9,6.148,1.025,14.83,104.6391,11.15,12.37,24.18,0,110.3,13.29,11.94,130.9
"2009-05-09 00:21:00",870119,20.49,171.4,3.682,0.74,14.91,104.638,11.15,12.4,24.7,0,110.3,13.29,11.94,133.4
"2009-05-09 00:21:30",870120,19.25,171,3.261,1.088,14.68,104.6217,11.1,12.43,24.39,0,110.3,13.29,11.90,133.0
"2009-05-09 00:22:00",870121,20.47,172.9,4.839,1.112,14.72,104.6091,11.07,12.37,24.3,0,110.3,13.29,11.86,134.9
"2009-05-09 00:22:30",870122,19.03,169.4,7.016,1.032,12.73,104.6111,11.08,12.21,24.76,0,110.3,13.3,11.87,131.4
"2009-05-09 00:23:00",870123,18.38,169.4,6.368,1.125,12.51,104.6092,11.07,12.17,24.67,0,110.3,13.3,11.86,131.4
"2009-05-09 00:23:30",870124,17.72,165.7,6.631,0.797,11.92,104.5886,11.02,12.15,24.06,0,110.3,13.3,11.81,127.7
"2009-05-09 00:24:00",870125,17.45,173.5,6.361,1.497,13.57,104.5794,11,12.16,25.38,0,110.3,13.3,11.79,135.5
"2009-05-09 00:24:30",870126,16.21,173.7,6.956,1.249,14.49,104.58,11,12.27,26.59,0,110.3,13.3,11.79,135.7
"2009-05-09 00:25:00",870127,17.54,174.8,4.799,1.158,15.25,104.5687,10.97,12.25,26.83,0,110.3,13.3,11.76,136.8
"2009-05-09 00:25:30",870128,18.73,173.2,6.548,0.917,14.43,104.5508,10.92,12.19,23.93,0,110.3,13.3,11.71,135.2
"2009-05-09 00:26:00",870129,17.72,174.1,5.892,1.041,13.84,104.552,10.93,12.12,24.42,0,110.3,13.3,11.72,136.1
"2009-05-09 00:26:30",870130,16.7,172.6,6.587,1.25,13.32,104.5526,10.93,12.08,25.55,0,110.3,13.3,11.72,134.6
"2009-05-09 00:27:00",870131,16.55,171.2,5.243,1.202,12.58,104.5558,10.94,12.13,25.21,0,110.3,13.3,11.73,133.2
"2009-05-09 00:27:30",870132,17.42,177.4,6.784,1.103,14.12,104.5517,10.93,12.17,25.69,0,110.3,13.3,11.72,139.4
"2009-05-09 00:28:00",870133,17.53,175.1,7.33,1.193,14.16,104.5408,10.9,12.15,25.66,0,110.3,13.31,11.69,137.1
"2009-05-09 00:28:30",870134,16.97,179.5,6.211,1.504,14.42,104.5282,10.87,12.1,26.33,0,110.3,13.31,11.66,141.5
"2009-05-09 00:29:00",870135,16.93,173.4,6.631,1.454,13.76,104.5317,10.87,12.06,25.69,0,110.3,13.31,11.66,135.4
"2009-05-09 00:29:30",870136,16.74,176.6,7.871,1.43,13.8,104.5309,10.87,12.11,25.17,0,110.3,13.31,11.66,138.6
"2009-05-09 00:30:00",870137,16.41,169.1,5.013,1.548,11.73,104.5335,10.88,11.98,25.21,0,110.3,13.31,11.67,131.1
"2009-05-09 00:30:30",870138,17.25,174.2,5.409,1.148,13.94,104.5318,10.87,12.06,25.17,0,110.3,13.31,11.66,136.2
"2009-05-09 00:31:00",870139,16.79,171,8.39,1.272,13,104.5257,10.86,11.96,24.98,0,110.3,13.31,11.65,133.0
"2009-05-09 00:31:30",870140,17.77,171.6,6.851,1.251,14.04,104.5223,10.85,12.09,24.43,0,110.3,13.31,11.64,133.6
"2009-05-09 00:32:00",870141,17.94,172.6,5.775,1.129,14.48,104.5231,10.85,12.03,24.11,0,110.3,13.31,11.64,134.6
"2009-05-09 00:32:30",870142,18.01,173.4,4.834,1.258,14.27,104.5245,10.86,12.04,24.03,0,110.3,13.31,11.65,135.4
"2009-05-09 00:33:00",870143,18.7,172.9,6.546,1.182,14.45,104.5248,10.86,12.05,23.87,0,110.3,13.31,11.65,134.9
"2009-05-09 00:33:30",870144,18.97,173.7,6.124,1.072,14.41,104.5257,10.86,12,23.54,0,110.3,13.31,11.65,135.7
"2009-05-09 00:34:00",870145,17.95,171.8,7.687,1.408,13.2,104.5279,10.86,12.04,23.67,0,110.3,13.3,11.65,133.8
"2009-05-09 00:34:30",870146,18.02,171,6.354,0.958,13.55,104.5288,10.87,11.98,23.96,0,110.3,13.3,11.66,133.0
"2009-05-09 00:35:00",870147,17.79,165.6,5.318,1.529,12.01,104.5265,10.86,11.93,23.44,0,110.3,13.3,11.65,127.6
"2009-05-09 00:35:30",870148,19.38,170.5,7.201,1.212,14.7,104.5276,10.86,11.98,22.99,0,110.3,13.3,11.65,132.5
"2009-05-09 00:36:00",870149,17.82,171,5.811,1.61,13.61,104.529,10.87,12.01,23.27,0,110.3,13.3,11.66,133.0
"2009-05-09 00:36:30",870150,18.56,175.7,4.02,0.962,15.43,104.5262,10.86,12.09,23.97,0,110.3,13.3,11.65,137.7
"2009-05-09 00:37:00",870151,19.47,174.9,1.991,0.957,15.18,104.5245,10.86,12.04,23.01,0,110.3,13.3,11.65,136.9
"2009-05-09 00:37:30",870152,19.14,168.8,7.154,1.329,13.16,104.5243,10.85,12.02,22.35,0,110.3,13.3,11.65,130.8
"2009-05-09 00:38:00",870153,18.06,163.3,6.112,1.418,12.06,104.5296,10.87,11.86,20.08,0,110.3,13.3,11.66,125.3
"2009-05-09 00:38:30",870154,18.02,166.3,7.003,0.95,12.69,104.5347,10.88,11.9,22.01,0,110.3,13.31,11.67,128.3
"2009-05-09 00:39:00",870155,18,168.5,6.77,1.619,14.05,104.5347,10.88,11.99,23.23,0,110.3,13.31,11.67,130.5
"2009-05-09 00:39:30",870156,18.94,172.1,6.848,1.094,14.83,104.5347,10.88,12.1,23.08,0,110.3,13.31,11.67,134.1
"2009-05-09 00:40:00",870157,19.07,171.4,4.276,0.978,15.52,104.5358,10.88,12.14,22.13,0,110.3,13.32,11.67,133.4
"2009-05-09 00:40:30",870158,19.9,171.4,3.898,0.534,15.57,104.544,10.91,12.13,21.5,0,110.3,13.32,11.70,133.4
"2009-05-09 00:41:00",870159,19.13,170.4,4.989,1.187,14.85,104.5541,10.93,12.16,19.81,0,110.2,13.32,11.72,132.4
"2009-05-09 00:41:30",870160,18.8,163.9,5.852,1.396,11.47,104.5682,10.97,11.84,19.92,0,110.2,13.32,11.76,125.9
"2009-05-09 00:42:00",870161,17.68,160.2,1.68,0.355,10.97,104.5685,10.97,11.94,19.58,0,110.3,13.35,11.76,122.2
"2009-05-09 00:42:30",870162,18.38,165,6.45,1.224,13.26,104.5818,11,11.93,18.77,0,110.2,13.32,11.79,127.0
"2009-05-09 00:43:00",870163,19.54,169.9,6.111,1.287,14.79,104.5998,11.05,12.17,19.45,0,110.2,13.32,11.84,131.9
"2009-05-09 00:43:30",870164,20.42,171.9,3.925,0.89,15.57,104.6024,11.05,12.21,20.92,0,110.3,13.32,11.85,133.9
"2009-05-09 00:44:00",870165,20.03,170.2,3.913,0.741,15.95,104.6024,11.05,12.29,19.55,0,110.3,13.32,11.85,132.2
"2009-05-09 00:44:30",870166,19.66,170.1,3.788,0.85,15.61,104.6052,11.06,12.26,19.02,0,110.2,13.32,11.85,132.1
"2009-05-09 00:45:00",870167,20.19,169.4,3.686,0.8,15.12,104.621,11.1,12.29,19.25,0,110.2,13.32,11.89,131.4
"2009-05-09 00:45:30",870168,20.31,168.5,4.205,0.776,15.18,104.6306,11.13,12.31,19.43,0,110.2,13.32,11.92,130.5
"2009-05-09 00:46:00",870169,19.97,169.4,3.33,0.659,14.57,104.6359,11.14,12.32,19.52,0,110.2,13.32,11.93,131.4
"2009-05-09 00:46:30",870170,20.1,168.7,3.742,0.763,14.53,104.6362,11.14,12.35,20.4,0,110.2,13.32,11.93,130.7
"2009-05-09 00:47:00",870171,19.99,169.1,3.45,0.795,14.47,104.6365,11.14,12.35,20.32,0,110.2,13.32,11.93,131.1
"2009-05-09 00:47:30",870172,20.29,168.4,4.494,0.661,14.58,104.6377,11.15,12.36,20.04,0,110.2,13.32,11.94,130.4
"2009-05-09 00:48:00",870173,19.45,166.8,2.506,1.163,14.88,104.6389,11.15,12.38,19.78,0,110.2,13.32,11.94,128.8
"2009-05-09 00:48:30",870174,19.31,163.8,5.954,1.209,14.05,104.6389,11.15,12.3,18.8,0,110.2,13.32,11.94,125.8
"2009-05-09 00:49:00",870175,19.33,164.2,5.951,1.163,13.48,104.64,11.15,12.28,18.92,0,110.2,13.32,11.94,126.2
"2009-05-09 00:49:30",870176,17.42,154.7,1.163,0.505,10.69,104.6429,11.16,12.09,18.96,0,110.2,13.35,11.95,116.7
"2009-05-09 00:50:00",870177,17.02,155.7,4.141,0.961,11.84,104.6664,11.22,12.21,18.67,0,110.2,13.32,12.01,117.7
"2009-05-09 00:50:30",870178,19.15,163.5,6.233,1.037,14.68,104.6774,11.25,12.35,18.95,0,110.3,13.31,12.04,125.5
"2009-05-09 00:51:00",870179,19.11,165.4,5.096,0.98,15.76,104.6783,11.25,12.42,18.52,0,110.2,13.31,12.04,127.4
"2009-05-09 00:51:30",870180,18.77,164.3,5.802,1.003,15.78,104.6857,11.27,12.43,18.77,0,110.2,13.31,12.06,126.3
"2009-05-09 00:52:00",870181,18.53,164.8,5.625,1.219,15.06,104.7077,11.32,12.42,18.48,0,110.2,13.31,12.12,126.8
"2009-05-09 00:52:30",870182,16.68,156.6,2.534,0.627,11.66,104.7128,11.34,12.31,18.79,0,110.2,13.31,12.13,118.6
"2009-05-09 00:53:00",870183,17.99,167,5.588,1.167,14.15,104.7145,11.34,12.4,19.49,0,110.2,13.31,12.13,129.0
"2009-05-09 00:53:30",870184,17.55,164.9,7.552,1.44,13.97,104.7246,11.37,12.41,19.96,0,110.2,13.31,12.16,126.9
"2009-05-09 00:54:00",870185,18.12,163.8,6.477,1.189,14.23,104.7294,11.38,12.49,19.69,0,110.2,13.31,12.17,125.8
"2009-05-09 00:54:30",870186,17.99,163.8,6.033,1.397,14.71,104.7331,11.39,12.53,19.43,0,110.2,13.31,12.18,125.8
"2009-05-09 00:55:00",870187,18.05,166.3,6.735,1.215,14.33,104.7357,11.4,12.5,19.24,0,110.2,13.32,12.19,128.3
"2009-05-09 00:55:30",870188,17.37,159.9,6.266,1.298,13.94,104.7349,11.39,12.43,18.78,0,110.2,13.32,12.19,121.9
"2009-05-09 00:56:00",870189,17.36,162.8,6.694,1.348,14.65,104.7394,11.41,12.48,19.11,0,110.2,13.32,12.20,124.8
"2009-05-09 00:56:30",870190,17.99,163.6,6.446,1.158,14.9,104.7493,11.43,12.53,18.94,0,110.2,13.32,12.22,125.6
"2009-05-09 00:57:00",870191,17.46,164,6.299,1.317,14.43,104.7498,11.43,12.52,18.87,0,110.2,13.32,12.22,126.0
"2009-05-09 00:57:30",870192,17.71,162.1,6.631,1.226,14.38,104.7522,11.44,12.57,18.48,0,110.2,13.32,12.23,124.1
"2009-05-09 00:58:00",870193,17.24,159.6,6.805,1.329,13.48,104.7612,11.46,12.48,18.23,0,110.2,13.32,12.25,121.6
"2009-05-09 00:58:30",870194,17.78,161,6.809,1.237,13.94,104.7768,11.5,12.52,18.2,0,110.2,13.32,12.29,123.0
"2009-05-09 00:59:00",870195,17.76,163.2,6.104,1.359,15.05,104.7882,11.53,12.6,18.19,0,110.2,13.32,12.32,125.2
"2009-05-09 00:59:30",870196,17.47,163.6,6.511,1.337,15.33,104.7896,11.53,12.66,18.26,0,110.2,13.33,12.33,125.6
"2009-05-09 01:00:00",870197,17.81,163.6,5.82,1.378,14.57,104.7905,11.54,12.65,18.15,0,110.2,13.33,12.33,125.6
"2009-05-09 01:00:30",870198,17.58,163,4.876,1.364,14.71,104.7914,11.54,12.66,18.3,0,110.2,13.32,12.33,125.0
"2009-05-09 01:01:00",870199,16.85,157.5,6.752,1.296,13.04,104.8032,11.57,12.64,18.22,0,110.2,13.32,12.36,119.5
"2009-05-09 01:01:30",870200,15.55,153.4,0.719,0.272,11.52,104.8204,11.61,12.47,18.1,0,110.2,13.36,12.41,115.4
"2009-05-09 01:02:00",870201,16.83,162.2,6.34,1.258,15.03,104.8258,11.63,12.71,18.49,0,110.2,13.33,12.42,124.2
"2009-05-09 01:02:30",870202,17.62,162.1,6.691,1.34,15.1,104.8267,11.63,12.77,18.61,0,110.2,13.33,12.42,124.1
"2009-05-09 01:03:00",870203,17.79,161.8,5.523,1.271,15.49,104.8279,11.63,12.81,18.8,0,110.2,13.33,12.42,123.8
"2009-05-09 01:03:30",870204,17.73,161.9,4.985,0.938,15.91,104.8284,11.63,12.84,18.51,0,110.3,13.33,12.43,123.9
"2009-05-09 01:04:00",870205,17.12,159.3,6.171,1.28,14.29,104.8489,11.69,12.78,18.41,0,110.2,13.33,12.48,121.3
"2009-05-09 01:04:30",870206,15.53,149.6,0.712,0.178,11.14,104.8595,11.71,12.6,18.27,0,110.2,13.36,12.51,111.6
"2009-05-09 01:05:00",870207,16.04,152.1,5.083,1.035,12.5,104.8623,11.72,12.75,18.53,0,110.2,13.33,12.51,114.1
"2009-05-09 01:05:30",870208,16.29,155.9,6.201,1.308,14.16,104.8629,11.72,12.73,18.5,0,110.2,13.33,12.51,117.9
"2009-05-09 01:06:00",870209,16.87,159.4,4.603,1.036,15.91,104.8641,11.72,12.86,18.42,0,110.2,13.33,12.52,121.4
"2009-05-09 01:06:30",870210,16.53,156.6,5.457,1.136,15.21,104.8638,11.72,12.93,18.39,0,110.2,13.33,12.52,118.6
"2009-05-09 01:07:00",870211,16.81,158.6,4.624,1.006,15.06,104.8638,11.72,12.93,18.27,0,110.2,13.32,12.52,120.6
"2009-05-09 01:07:30",870212,16.33,155.1,6.194,1.431,12.84,104.865,11.73,12.8,18.47,0,110.2,13.32,12.52,117.1
"2009-05-09 01:08:00",870213,16.35,154.2,6.954,1.242,13.03,104.8635,11.72,12.78,18.46,0,110.2,13.32,12.52,116.2
"2009-05-09 01:08:30",870214,15.77,153.7,7.431,1.397,12.53,104.8605,11.72,12.82,18.17,0,110.2,13.32,12.51,115.7
"2009-05-09 01:09:00",870215,16.56,156,7.503,1.443,13.45,104.8623,11.72,12.66,18.04,0,110.2,13.32,12.51,118.0
"2009-05-09 01:09:30",870216,17.25,161.1,6.529,1.14,14.76,104.8617,11.72,12.96,18.87,0,110.2,13.32,12.51,123.1
"2009-05-09 01:10:00",870217,17.74,161.1,5.271,1.017,15.17,104.8588,11.71,12.93,19.16,0,110.2,13.32,12.50,123.1
"2009-05-09 01:10:30",870218,18.27,163,4.875,0.944,14.93,104.8494,11.69,12.91,19.52,0,110.2,13.32,12.48,125.0
"2009-05-09 01:11:00",870219,17.99,163.4,5.39,1.246,14.56,104.8252,11.63,12.94,19.7,0,110.3,13.32,12.42,125.4
"2009-05-09 01:11:30",870220,16.96,157.9,6.287,1.11,11.76,104.8226,11.62,12.75,19.77,0,110.3,13.32,12.41,119.9
"2009-05-09 01:12:00",870221,16.06,154.2,2.537,0.422,10.1,104.7974,11.55,12.68,20.21,0,110.3,13.35,12.35,116.2
"2009-05-09 01:12:30",870222,16.8,157.6,5.118,1.303,12.29,104.7869,11.53,12.6,20.22,0,110.2,13.32,12.32,119.6
"2009-05-09 01:13:00",870223,17.72,164.8,6.218,1.349,14.2,104.7615,11.46,12.79,20.69,0,110.3,13.32,12.25,126.8
"2009-05-09 01:13:30",870224,18.22,164.7,4.627,0.799,15.29,104.7506,11.43,12.81,20.67,0,110.2,13.33,12.23,126.7
"2009-05-09 01:14:00",870225,17.38,166.5,5.14,1.337,15.11,104.7235,11.36,12.74,20.97,0,110.3,13.33,12.16,128.5
"2009-05-09 01:14:30",870226,17.71,166.3,3.932,0.928,14.8,104.7095,11.33,12.71,21.32,0,110.2,13.33,12.12,128.3
"2009-05-09 01:15:00",870227,17.63,158.8,7.528,1.167,12.76,104.6884,11.27,12.6,21.18,0,110.2,13.32,12.07,120.8
"2009-05-09 01:15:30",870228,16.6,163.7,6.429,1.626,13.21,104.6621,11.21,12.61,21.12,0,110.2,13.32,12.00,125.7
"2009-05-09 01:16:00",870229,16,163,6.915,1.25,12.75,104.6483,11.17,12.39,21.57,0,110.3,13.32,11.96,125.0
"2009-05-09 01:16:30",870230,16.18,162.1,6.46,1.566,12.44,104.6215,11.1,12.32,21.6,0,110.3,13.33,11.89,124.1
"2009-05-09 01:17:00",870231,16.65,161.7,7.794,1.409,13.5,104.603,11.06,12.47,21.91,0,110.3,13.33,11.85,123.7
"2009-05-09 01:17:30",870232,18.06,164.8,6.68,1.14,14.3,104.5895,11.02,12.46,22.04,0,110.3,13.33,11.81,126.8
"2009-05-09 01:18:00",870233,18.17,164.4,5.691,1.056,14.33,104.5659,10.96,12.34,22,0,110.2,13.33,11.75,126.4
"2009-05-09 01:18:30",870234,18.44,163.4,5.572,1.353,13.64,104.5569,10.94,12.25,21.56,0,110.2,13.33,11.73,125.4
"2009-05-09 01:19:00",870235,17.92,165.1,6.685,1.125,14.23,104.5293,10.87,12.31,21.8,0,110.2,13.33,11.66,127.1
"2009-05-09 01:19:30",870236,19.31,167,4.741,0.818,14.66,104.528,10.86,12.27,21.94,0,110.2,13.33,11.65,129.0
"2009-05-09 01:20:00",870237,19.45,164.9,4.762,0.717,14.81,104.5133,10.83,12.27,21.83,0,110.2,13.33,11.62,126.9
"2009-05-09 01:20:30",870238,20.02,164.8,4.129,0.664,14.7,104.4967,10.78,12.2,21.96,0,110.2,13.33,11.57,126.8
"2009-05-09 01:21:00",870239,18.81,163.6,5.253,1.206,13.76,104.4977,10.79,12.12,22,0,110.2,13.33,11.58,125.6
"2009-05-09 01:21:30",870240,16.75,154.2,6.308,1.472,11.84,104.4895,10.77,12.02,21.98,0,110.2,13.33,11.56,116.2
"2009-05-09 01:22:00",870241,16.83,156.6,5.054,1.501,11.52,104.4721,10.72,11.86,21.79,0,110.2,13.33,11.51,118.6
"2009-05-09 01:22:30",870242,16.84,159.7,7.2,1.315,13.43,104.4629,10.7,12.07,22.7,0,110.2,13.33,11.49,121.7
"2009-05-09 01:23:00",870243,16.24,157.2,7.144,1.299,14.23,104.4664,10.71,11.95,22.54,0,110.2,13.33,11.50,119.2
"2009-05-09 01:23:30",870244,16.47,158.8,6.852,1.122,15.23,104.458,10.69,12,22.41,0,110.2,13.32,11.47,120.8
"2009-05-09 01:24:00",870245,16.99,155.3,5.777,1.133,15.54,104.4552,10.68,11.96,20.35,0,110.2,13.32,11.47,117.3
"2009-05-09 01:24:30",870246,16.67,160.7,7.752,1.592,13.88,104.456,10.68,11.92,21.99,0,110.2,13.32,11.47,122.7
"2009-05-09 01:25:00",870247,17.18,156,6.627,1.214,13.94,104.4561,10.68,11.87,22,0,110.2,13.32,11.47,118.0
"2009-05-09 01:25:30",870248,16.6,156.4,5.944,0.931,14.15,104.4532,10.67,11.83,22.11,0,110.2,13.32,11.46,118.4
"2009-05-09 01:26:00",870249,17.03,154.5,6.211,1.417,13.22,104.4533,10.67,11.86,21.42,0,110.2,13.32,11.46,116.5
"2009-05-09 01:26:30",870250,17.08,154.3,5.865,1.233,14.45,104.4555,10.68,11.89,21,0,110.2,13.32,11.47,116.3
"2009-05-09 01:27:00",870251,17.2,151.2,6.682,1.339,13.67,104.4595,10.69,11.9,21.08,0,110.2,13.32,11.48,113.2
"2009-05-09 01:27:30",870252,18.07,153.9,5.985,1.155,13.94,104.4657,10.71,11.82,21.5,0,110.2,13.32,11.49,115.9
"2009-05-09 01:28:00",870253,17.67,150.2,6.626,1.467,13.97,104.4685,10.71,11.9,20.97,0,110.3,13.33,11.50,112.2
"2009-05-09 01:28:30",870254,18.79,155.4,3.765,0.625,15.07,104.4685,10.71,11.9,20.65,0,110.2,13.33,11.50,117.4
"2009-05-09 01:29:00",870255,18.94,153.6,4.015,0.591,15.5,104.4685,10.71,11.96,20.17,0,110.2,13.33,11.50,115.6
"2009-05-09 01:29:30",870256,18.54,153.8,3.876,0.86,15.34,104.4685,10.71,11.96,19.62,0,110.2,13.33,11.50,115.8
"2009-05-09 01:30:00",870257,18.81,152.8,3.026,0.826,15.08,104.4685,10.71,11.98,19.65,0,110.2,13.33,11.50,114.8
"2009-05-09 01:30:30",870258,19.14,151.9,4.411,0.65,14.9,104.4685,10.71,11.95,19.65,0,110.2,13.33,11.50,113.9
"2009-05-09 01:31:00",870259,19.01,150.4,4.329,0.691,15,104.4688,10.71,11.96,19.56,0,110.2,13.33,11.50,112.4
"2009-05-09 01:31:30",870260,18.72,149,3.722,0.735,14.65,104.4815,10.75,11.97,19.42,0,110.2,13.33,11.54,111.0
"2009-05-09 01:32:00",870261,18.62,147.3,4.065,0.849,14.94,104.4962,10.78,11.97,19.7,0,110.2,13.33,11.57,109.3
"2009-05-09 01:32:30",870262,18.62,146.5,3.032,0.816,14.74,104.5024,10.8,11.99,19.75,0,110.2,13.33,11.59,108.5
"2009-05-09 01:33:00",870263,19.04,146,4.673,0.514,15.06,104.5024,10.8,12.02,19.53,0,110.2,13.33,11.59,108.0
"2009-05-09 01:33:30",870264,18.95,146.6,2.05,0.887,14.86,104.5049,10.81,12.03,19.21,0,110.2,13.33,11.60,108.6
"2009-05-09 01:34:00",870265,19.5,144.9,3.302,0.676,15.06,104.517,10.84,12.04,19.19,0,110.2,13.33,11.63,106.9
"2009-05-09 01:34:30",870266,19.46,142.1,3.834,0.725,14.9,104.5272,10.86,12.04,19.19,0,110.2,13.33,11.65,104.1
"2009-05-09 01:35:00",870267,19.17,141.2,3.905,0.627,15.06,104.5275,10.86,12.07,19.27,0,110.2,13.33,11.65,103.2
"2009-05-09 01:35:30",870268,19.31,141.3,3.641,0.883,15.05,104.5311,10.87,12.07,19.18,0,110.2,13.33,11.66,103.3
"2009-05-09 01:36:00",870269,19.05,139.5,3.86,0.574,15.03,104.534,10.88,12.07,19.1,0,110.2,13.33,11.67,101.5
"2009-05-09 01:36:30",870270,18.82,140.1,3.065,0.883,15.03,104.5362,10.89,12.06,18.97,0,110.2,13.33,11.68,102.1
"2009-05-09 01:37:00",870271,18.56,141.6,2.781,0.823,14.92,104.5362,10.89,12.08,18.96,0,110.2,13.33,11.68,103.6
"2009-05-09 01:37:30",870272,18.5,141.8,4.752,0.81,15.04,104.5365,10.89,12.11,18.98,0,110.2,13.33,11.68,103.8
"2009-05-09 01:38:00",870273,18.75,139.9,2.778,0.852,14.62,104.5498,10.92,12.1,18.75,0,110.2,13.33,11.71,101.9
"2009-05-09 01:38:30",870274,18.88,140.4,4.671,0.634,14.64,104.5498,10.92,12.12,18.79,0,110.2,13.33,11.71,102.4
"2009-05-09 01:39:00",870275,18.88,137.9,2.781,0.815,14.51,104.539,10.89,12.15,18.33,0,110.2,13.33,11.68,99.9
"2009-05-09 01:39:30",870276,18.42,140.5,4.281,0.974,14.55,104.5362,10.89,12.14,18.37,0,110.2,13.33,11.68,102.5
"2009-05-09 01:40:00",870277,18.02,140.4,1.613,0.831,14.6,104.5359,10.88,12.14,18.88,0,110.2,13.32,11.67,102.4
"2009-05-09 01:40:30",870278,18.2,139.5,2.901,0.878,14.48,104.5272,10.86,12.13,18.7,0,110.3,13.32,11.65,101.5
"2009-05-09 01:41:00",870279,18.48,138,4.339,0.714,14.62,104.5043,10.8,12.1,18.03,0,110.2,13.32,11.59,100.0
"2009-05-09 01:41:30",870280,18.39,138.2,4.707,0.596,14.41,104.5024,10.8,12.09,18.15,0,110.2,13.32,11.59,100.2
"2009-05-09 01:42:00",870281,18.71,139.1,3.313,0.718,14.72,104.4928,10.77,12.07,17.86,0,110.2,13.32,11.56,101.1
"2009-05-09 01:42:30",870282,19,137.8,4.244,0.74,14.4,104.4705,10.72,12.06,17.47,0,110.2,13.32,11.51,99.8
"2009-05-09 01:43:00",870283,19.45,138.8,3.474,0.917,14.44,104.4685,10.71,12.03,17.24,0,110.2,13.32,11.50,100.8
"2009-05-09 01:43:30",870284,18.99,140.2,5.493,1.087,14.47,104.4671,10.71,12.02,17.83,0,110.2,13.32,11.50,102.2
"2009-05-09 01:44:00",870285,19.79,137.9,3.573,0.556,14.78,104.455,10.68,11.99,17.06,0,110.2,13.32,11.47,99.9
"2009-05-09 01:44:30",870286,19.65,137.6,5.497,0.891,14.64,104.4361,10.63,11.97,17.21,0,110.2,13.32,11.42,99.6
"2009-05-09 01:45:00",870287,18.96,139.6,3.469,0.951,14.58,104.4347,10.63,11.96,16.81,0,110.2,13.33,11.42,101.6
"2009-05-09 01:45:30",870288,18.92,138.3,3.731,1.137,14.4,104.4347,10.63,11.93,16.77,0,110.2,13.33,11.42,100.3
"2009-05-09 01:46:00",870289,19,137.2,3.808,0.696,14.52,104.4304,10.61,11.9,17.59,0,110.2,13.33,11.40,99.2
"2009-05-09 01:46:30",870290,18.18,136.6,4.451,0.916,14.59,104.4124,10.57,11.89,17.6,0,110.2,13.33,11.36,98.6
"2009-05-09 01:47:00",870291,18.28,136.6,3.795,0.972,14.27,104.4014,10.54,11.89,17.58,0,110.2,13.33,11.33,98.6
"2009-05-09 01:47:30",870292,18.84,137.9,2.882,0.801,14.2,104.4008,10.54,11.86,17.88,0,110.2,13.33,11.33,99.9